#timestamp,LO_Frequency,Hit,StdDev 
1610204415.9,286046984.6,N
1610204435.7,286046983.9,N
1610204455.6,286046987.9,N
1610204475.4,286046986.0,N
1610204495.2,286046982.1,Y
1610204515.1,286046994.8,P
1610204516.0,286046994.8,N
1610204535.8,286046990.2,P
1610204555.7,286046992.6,N
1610204575.5,286046992.7,N
1610204595.3,286046988.6,Y
1610204615.2,286046997.9,P
1610204635.0,286046995.2,N
1610204635.9,286046995.2,N
1610204655.8,286046996.3,N
1610204675.6,286046994.1,Y
1610204695.4,286046997.3,P
1610204715.3,286046996.7,P
1610204735.1,286046997.2,P
1610204755.8,286046996.7,Y
1610204775.7,286047002.3,P
1610204795.5,286046999.9,N
1610204815.4,286046999.7,N
1610204835.2,286047000.3,N
1610204855.0,286046999.8,N
1610204855.9,286046999.8,N
1610204875.8,286047002.3,N
1610204895.6,286047002.0,N
1610204915.5,286047002.5,N
1610204935.3,286047004.0,N
1610204955.1,286047001.6,N
1610204975.9,286047004.2,N
1610204995.7,286047001.4,N
1610205015.5,286047002.5,N
1610205035.4,286047002.2,N
1610205055.2,286047001.5,N
1610205075.1,286047001.6,N
1610205076.0,286047001.6,N
1610205095.8,286047002.0,N
1610205115.6,286047002.3,N
1610205135.5,286047002.4,N
1610205155.3,286047000.0,N
1610205175.1,286046999.8,N
1610205195.9,286047000.7,N
1610205215.7,286046999.2,N
1610205235.6,286046998.4,N
1610205255.4,286047000.6,N
1610205275.2,286046999.9,N
1610205295.1,286047000.2,N
1610205296.0,286047000.2,N
1610205315.8,286047002.4,N
1610205335.7,286047002.8,N
1610205355.5,286047002.5,N
1610205375.3,286047001.4,N
1610205395.2,286047002.0,N
1610205415.9,286047002.2,N
1610205435.7,286047002.1,N
1610205455.6,286047001.9,N
1610205475.4,286047002.6,N
1610205495.3,286047002.1,N
1610205515.1,286047001.4,N
1610205516.0,286047001.4,N
1610205535.8,286047001.8,N
1610205555.7,286047002.5,N
1610205575.5,286047001.4,N
1610205595.3,286047002.5,N
1610205615.2,286047002.1,N
1610205635.0,286047004.2,Y
1610205635.9,286047004.2,P
1610205655.8,286046999.7,N
1610205675.6,286046999.8,N
1610205695.4,286047002.0,N
1610205715.3,286047001.7,N
1610205735.1,286047001.4,N
1610205755.9,286047001.4,N
1610205775.7,286047004.2,Y
1610205795.5,286047002.7,P
1610205815.4,286047002.4,P
1610205835.2,286046999.8,N
1610205855.0,286047002.8,N
1610205856.0,286047002.8,N
1610205875.8,286047002.4,N
1610205895.6,286046999.7,N
1610205915.5,286047002.0,N
1610205935.3,286047001.5,N
1610205955.1,286047001.3,N
1610205975.9,286047003.5,Y
1610205995.7,286047004.0,P
1610206015.6,286047004.0,P
1610206035.4,286047002.1,N
1610206055.2,286047003.6,Y
1610206075.1,286047001.0,P
1610206076.0,286047001.0,N
1610206095.8,286047000.9,N
1610206115.7,286047000.9,N
1610206135.5,286046998.1,N
1610206155.3,286047000.4,N
1610206175.2,286047002.7,N
1610206195.0,286047000.5,N
1610206195.9,286047000.5,N
1610206215.7,286047000.1,N
1610206235.6,286047000.6,N
1610206255.4,286047002.0,N
1610206275.3,286047002.3,N
1610206295.1,286047001.5,N
1610206296.0,286047001.5,N
1610206315.8,286047001.9,N
1610206335.7,286047002.2,N
1610206355.5,286047000.1,N
1610206375.4,286047002.4,N
1610206395.2,286046999.7,N
1610206415.0,286047001.4,N
1610206415.9,286047001.4,N
1610206435.8,286047001.7,N
1610206455.6,286046999.9,N
1610206475.5,286047000.6,N
1610206495.3,286047000.0,N
1610206515.1,286047000.6,N
1610206535.9,286047000.9,N
1610206555.7,286046998.5,N
1610206575.5,286046998.4,N
1610206595.4,286047001.0,N
1610206615.2,286046999.0,N
1610206635.1,286046999.2,N
1610206636.0,286046999.2,N
1610206655.8,286046998.2,N
1610206675.6,286046998.6,N
1610206695.5,286046996.9,N
1610206715.3,286046997.4,N
1610206735.2,286046997.3,N
1610206755.9,286046994.9,Y
1610206775.7,286046997.5,P
1610206795.6,286046995.2,P
1610206815.4,286046997.9,N
1610206835.2,286046996.9,N
1610206855.1,286046996.6,N
1610206856.0,286046996.6,N
1610206875.8,286046996.6,N
1610206895.7,286046997.0,N
1610206915.5,286046997.4,N
1610206935.3,286046996.8,N
1610206955.2,286046996.6,N
1610206975.0,286046997.0,N
1610206975.9,286046997.0,N
1610206995.8,286046997.8,N
1610207015.6,286046997.2,N
1610207035.4,286046996.5,Y
1610207055.3,286047002.6,P
1610207075.1,286046999.7,N
1610207095.9,286046999.9,N
1610207115.7,286046999.8,N
1610207135.5,286047000.4,N
1610207155.4,286046999.9,N
1610207175.2,286047000.8,N
1610207195.1,286047000.6,N
1610207196.0,286047000.6,N
1610207215.8,286047000.6,N
1610207235.6,286046999.9,N
1610207255.5,286046999.8,N
1610207275.3,286047002.8,N
1610207295.1,286046999.7,N
1610207315.9,286047002.0,N
1610207335.7,286047001.9,N
1610207355.6,286047001.3,N
1610207375.4,286047002.0,N
1610207395.2,286047001.8,N
1610207415.1,286047001.9,N
1610207416.0,286047001.9,N
1610207435.8,286047001.5,N
1610207455.6,286047001.8,N
1610207475.5,286047001.8,N
1610207495.3,286047004.0,Y
1610207515.2,286047002.8,P
1610207535.9,286047001.7,N
1610207555.7,286047001.9,N
1610207575.6,286046999.7,N
1610207595.4,286047000.5,N
1610207615.3,286046999.7,N
1610207635.1,286047001.8,N
1610207636.0,286047001.8,N
1610207655.8,286047002.6,N
1610207675.7,286047002.2,N
1610207695.5,286047004.3,Y
1610207715.3,286046999.7,P
1610207735.2,286046999.7,N
1610207755.0,286047002.1,N
1610207755.9,286047002.1,N
1610207775.8,286047000.2,N
1610207795.6,286047002.4,N
1610207815.4,286047000.1,N
1610207835.3,286047000.2,N
1610207855.1,286047002.3,N
1610207875.9,286047000.2,N
1610207895.7,286047000.1,N
1610207915.5,286047002.6,N
1610207935.4,286047002.8,N
1610207955.2,286046999.7,N
1610207975.0,286047002.2,N
1610207976.0,286047002.2,N
1610207995.8,286047001.9,N
